K5GHS-1 Weather Reports


Display with metric or nautical units.
time (UTC)temp
F
wind
direction
speed
MPH
gust
MPH
rain 1hr
in
rain 24hr
in
rain mn
in
humidity
%
barometer
mb
20260503231030 83 79 1.0 2.0 0.00 0.00 0.00 31 1013.8
20260503230527 83 218 2.0 2.0 0.00 0.00 0.00 30 1013.9
20260503230025 83 116 0.0 3.0 0.00 0.00 0.00 29 1014.1
20260503225521 84 137 3.0 5.0 0.00 0.00 0.00 29 1014.0
20260503225016 82 87 1.0 5.0 0.00 0.00 0.00 30 1014.1
20260503224514 83 92 1.0 5.0 0.00 0.00 0.00 29 1014.1
20260503224012 82 96 1.0 3.0 0.00 0.00 0.00 31 1014.0
20260503223510 84 144 6.0 10.0 0.00 0.00 0.00 29 1014.1
20260503223005 84 99 1.0 2.0 0.00 0.00 0.00 28 1014.1
20260503222503 84 85 1.0 1.0 0.00 0.00 0.00 27 1014.3
20260503222001 84 75 1.0 2.0 0.00 0.00 0.00 30 1014.2
20260503221459 84 96 1.0 2.0 0.00 0.00 0.00 30 1014.2
20260503220956 84 153 3.0 7.0 0.00 0.00 0.00 29 1014.5
20260503220452 85 159 2.0 6.0 0.00 0.00 0.00 30 1014.3
20260503215949 85 36 0.0 3.0 0.00 0.00 0.00 29 1014.4
20260503215446 84 232 1.0 3.0 0.00 0.00 0.00 31 1014.4
20260503214943 84 134 2.0 3.0 0.00 0.00 0.00 32 1014.5
20260503214441 84 74 1.0 2.0 0.00 0.00 0.00 31 1014.5
20260503213938 86 101 1.0 1.0 0.00 0.00 0.00 30 1014.5
20260503213437 85 87 0.0 5.0 0.00 0.00 0.00 31 1014.6
20260503212932 85 130 1.0 5.0 0.00 0.00 0.00 31 1014.6
20260503212430 84 73 1.0 3.0 0.00 0.00 0.00 31 1014.8
20260503211927 84 53 1.0 5.0 0.00 0.00 0.00 32 1015.0
20260503211424 85 142 1.0 5.0 0.00 0.00 0.00 31 1015.0
20260503210919 85 80 1.0 2.0 0.00 0.00 0.00 31 1014.9
20260503210416 85 81 1.0 2.0 0.00 0.00 0.00 30 1015.3
20260503205911 85 79 1.0 1.0 0.00 0.00 0.00 31 1015.1
20260503205409 85 72 1.0 5.0 0.00 0.00 0.00 32 1015.2
20260503204904 85 88 1.0 2.0 0.00 0.00 0.00 31 1015.6
20260503204402 85 66 0.0 2.0 0.00 0.00 0.00 33 1015.5
20260503203859 85 151 2.0 3.0 0.00 0.00 0.00 31 1015.4
20260503203356 85 155 1.0 2.0 0.00 0.00 0.00 32 1015.7
20260503202853 86 101 1.0 2.0 0.00 0.00 0.00 30 1015.7
20260503202351 85 74 0.0 0.0 0.00 0.00 0.00 32 1015.8
20260503201849 84 262 3.0 5.0 0.00 0.00 0.00 30 1016.1
20260503201346 84 188 3.0 5.0 0.00 0.00 0.00 31 1016.2
20260503200844 84 132 3.0 5.0 0.00 0.00 0.00 31 1016.1
20260503200339 84 99 1.0 2.0 0.00 0.00 0.00 30 1016.2
20260503195837 83 83 0.0 3.0 0.00 0.00 0.00 31 1016.5
20260503195333 84 120 1.0 3.0 0.00 0.00 0.00 31 1016.4
20260503194830 84 87 0.0 3.0 0.00 0.00 0.00 32 1016.3
20260503194326 84 260 2.0 3.0 0.00 0.00 0.00 31 1016.7
20260503193823 84 95 1.0 5.0 0.00 0.00 0.00 34 1016.5
20260503193319 84 80 0.0 5.0 0.00 0.00 0.00 33 1016.8
20260503192815 84 222 1.0 5.0 0.00 0.00 0.00 33 1016.9
20260503192310 83 84 1.0 2.0 0.00 0.00 0.00 34 1016.5
20260503191806 84 172 3.0 5.0 0.00 0.00 0.00 32 1017.1
20260503191304 83 74 1.0 3.0 0.00 0.00 0.00 35 1017.1
20260503190800 84 75 0.0 2.0 0.00 0.00 0.00 35 1016.9
20260503190258 83 82 0.0 1.0 0.00 0.00 0.00 34 1017.1
20260503185755 83 73 1.0 3.0 0.00 0.00 0.00 35 1017.1
20260503185250 85 167 1.0 6.0 0.00 0.00 0.00 34 1017.1
20260503184744 84 74 0.0 2.0 0.00 0.00 0.00 35 1017.2
20260503184241 83 65 1.0 5.0 0.00 0.00 0.00 35 1017.4
20260503183737 83 46 3.0 5.0 0.00 0.00 0.00 34 1017.2
20260503183235 83 117 1.0 3.0 0.00 0.00 0.00 37 1017.5
20260503182732 82 120 1.0 3.0 0.00 0.00 0.00 36 1017.5
20260503182231 83 181 1.0 2.0 0.00 0.00 0.00 37 1017.7
20260503181728 82 206 2.0 6.0 0.00 0.00 0.00 36 1017.8
20260503181225 81 142 2.0 3.0 0.00 0.00 0.00 38 1017.9
20260503180721 82 219 1.0 6.0 0.00 0.00 0.00 38 1018.2
20260503180220 82 118 2.0 3.0 0.00 0.00 0.00 36 1018.2
20260503175716 82 162 2.0 5.0 0.00 0.00 0.00 37 1018.4
20260503175214 81 80 1.0 5.0 0.00 0.00 0.00 39 1018.3
20260503174709 82 287 1.0 3.0 0.00 0.00 0.00 39 1018.3
20260503174207 81 95 1.0 2.0 0.00 0.00 0.00 39 1018.3
20260503173702 81 54 1.0 2.0 0.00 0.00 0.00 39 1018.7
20260503173159 81 194 2.0 3.0 0.00 0.00 0.00 38 1018.7
20260503172656 82 173 2.0 6.0 0.00 0.00 0.00 37 1018.8
20260503172153 81 61 0.0 2.0 0.00 0.00 0.00 40 1018.7
20260503171649 80 86 0.0 3.0 0.00 0.00 0.00 40 1018.7
20260503171147 80 71 0.0 1.0 0.00 0.00 0.00 41 1018.7
20260503170643 80 90 1.0 2.0 0.00 0.00 0.00 40 1018.9
20260503170140 80 65 1.0 2.0 0.00 0.00 0.00 42 1019.0
20260503150531 73 96 0.0 5.0 0.00 0.00 0.00 48 1019.1
20260503130921 65 83 0.0 1.0 0.00 0.00 0.00 64 1019.1
20260503130419 63 77 0.0 1.0 0.00 0.00 0.00 65 1019.0
20260503110817 57 80 0.0 0.0 0.00 0.00 0.00 73 1018.1
20260503110314 57 77 0.0 0.0 0.00 0.00 0.00 73 1018.2
20260503100240 57 79 0.0 0.0 0.00 0.00 0.00 72 1018.1
20260503090200 59 79 0.0 0.0 0.00 0.00 0.00 68 1017.9
20260503081630 59 67 0.0 0.0 0.00 0.00 0.00 66 1017.8
20260503081127 59 78 0.0 0.0 0.00 0.00 0.00 66 1017.9
20260503080623 60 91 0.0 1.0 0.00 0.00 0.00 65 1018.1
20260503080120 60 79 0.0 0.0 0.00 0.00 0.00 65 1018.2
20260503072557 60 78 0.0 0.0 0.00 0.00 0.00 65 1018.5
20260503072054 60 84 0.0 0.0 0.00 0.00 0.00 65 1018.2
20260503071551 59 86 0.0 0.0 0.00 0.00 0.00 66 1018.3
20260503071048 59 86 0.0 0.0 0.00 0.00 0.00 65 1018.4
20260503070544 59 86 0.0 0.0 0.00 0.00 0.00 65 1018.3
20260503055003 63 84 0.0 0.0 0.00 0.00 0.00 57 1018.2
20260503054459 64 84 0.0 0.0 0.00 0.00 0.00 57 1018.2
20260503053957 64 83 0.0 0.0 0.00 0.00 0.00 56 1018.1
20260503053455 64 86 0.0 0.0 0.00 0.00 0.00 55 1018.2
20260503052951 64 89 0.0 0.0 0.00 0.00 0.00 55 1017.9
20260503052448 64 93 0.0 0.0 0.00 0.00 0.00 55 1018.2
20260503051944 64 88 0.0 0.0 0.00 0.00 0.00 54 1017.9
20260503051440 64 90 0.0 0.0 0.00 0.00 0.00 54 1018.1
20260503050937 65 88 0.0 0.0 0.00 0.00 0.00 54 1018.1
20260503050433 65 87 0.0 1.0 0.00 0.00 0.00 54 1018.1
20260503045931 65 87 0.0 0.0 0.00 0.00 0.00 53 1018.2
20260503045428 65 88 0.0 1.0 0.00 0.00 0.00 53 1018.1
20260503044925 65 85 0.0 0.0 0.00 0.00 0.00 53 1017.8
20260503044422 65 84 0.0 0.0 0.00 0.00 0.00 53 1017.8
20260503043920 64 86 0.0 1.0 0.00 0.00 0.00 53 1017.9
20260503043416 64 85 0.0 0.0 0.00 0.00 0.00 54 1018.1
20260503042912 65 84 0.0 0.0 0.00 0.00 0.00 54 1017.9
20260503042409 64 86 0.0 0.0 0.00 0.00 0.00 53 1017.7
20260503041905 64 89 0.0 0.0 0.00 0.00 0.00 54 1018.2
20260503041402 64 89 0.0 0.0 0.00 0.00 0.00 54 1018.1
20260503040900 64 88 0.0 0.0 0.00 0.00 0.00 55 1017.9
20260503040357 64 88 0.0 0.0 0.00 0.00 0.00 54 1018.1
20260503035854 65 88 0.0 0.0 0.00 0.00 0.00 54 1017.9
20260503035351 65 88 0.0 0.0 0.00 0.00 0.00 53 1017.9
20260503034848 66 88 0.0 0.0 0.00 0.00 0.00 53 1017.9
20260503034346 66 88 0.0 0.0 0.00 0.00 0.00 52 1018.1
20260503033843 65 87 0.0 1.0 0.00 0.00 0.00 52 1018.2
20260503033340 65 88 0.0 0.0 0.00 0.00 0.00 55 1017.9
20260503032838 65 87 0.0 0.0 0.00 0.00 0.00 56 1017.9
20260503032337 64 87 0.0 1.0 0.00 0.00 0.00 57 1017.9
20260503031834 64 86 0.0 0.0 0.00 0.00 0.00 59 1017.7
20260503031332 64 86 0.0 0.0 0.00 0.00 0.00 58 1017.6
20260503030827 64 86 0.0 0.0 0.00 0.00 0.00 57 1017.6
20260503030324 64 86 0.0 0.0 0.00 0.00 0.00 56 1017.6
20260503025821 65 86 0.0 0.0 0.00 0.00 0.00 56 1017.8
20260503025319 65 86 0.0 0.0 0.00 0.00 0.00 55 1017.4
20260503024815 65 86 0.0 0.0 0.00 0.00 0.00 55 1017.7
20260503024312 65 86 0.0 0.0 0.00 0.00 0.00 55 1017.5
20260503023809 65 86 0.0 0.0 0.00 0.00 0.00 54 1017.4
20260503023307 65 86 0.0 0.0 0.00 0.00 0.00 54 1017.5
20260503022803 66 86 0.0 0.0 0.00 0.00 0.00 53 1017.4
20260503022304 66 86 0.0 0.0 0.00 0.00 0.00 53 1017.6
20260503021800 66 86 0.0 0.0 0.00 0.00 0.00 52 1017.5
20260503021255 66 86 0.0 0.0 0.00 0.00 0.00 52 1017.3
20260503020754 67 86 0.0 0.0 0.00 0.00 0.00 51 1017.4
20260503020251 67 86 0.0 0.0 0.00 0.00 0.00 50 1017.3
20260503015747 67 86 0.0 0.0 0.00 0.00 0.00 50 1017.2
20260503015244 68 86 0.0 0.0 0.00 0.00 0.00 49 1016.9
20260503014740 68 86 0.0 0.0 0.00 0.00 0.00 49 1017.1
20260503014238 69 86 0.0 0.0 0.00 0.00 0.00 48 1017.1
20260503013735 69 86 0.0 0.0 0.00 0.00 0.00 47 1017.0
20260503013233 69 86 0.0 0.0 0.00 0.00 0.00 46 1017.1
20260503012730 70 86 0.0 0.0 0.00 0.00 0.00 45 1017.0
20260503012227 71 86 0.0 0.0 0.00 0.00 0.00 44 1017.0
20260503011723 71 86 0.0 0.0 0.00 0.00 0.00 43 1016.8
20260503011220 72 91 0.0 1.0 0.00 0.00 0.00 43 1016.9
20260503010716 72 75 0.0 0.0 0.00 0.00 0.00 42 1016.9
20260503010214 72 57 0.0 1.0 0.00 0.00 0.00 41 1016.8
20260503005711 73 81 0.0 1.0 0.00 0.00 0.00 42 1016.8
20260503005208 73 98 1.0 1.0 0.00 0.00 0.00 41 1016.7
20260503004704 73 82 0.0 2.0 0.00 0.00 0.00 41 1016.6
20260503004203 73 85 0.0 2.0 0.00 0.00 0.00 40 1016.6
20260503003700 73 108 1.0 2.0 0.00 0.00 0.00 40 1016.7
20260503003157 74 203 1.0 3.0 0.00 0.00 0.00 40 1016.8
20260503002653 74 90 1.0 1.0 0.00 0.00 0.00 39 1016.7
20260503002150 74 84 0.0 0.0 0.00 0.00 0.00 39 1016.6
20260503001646 74 83 0.0 1.0 0.00 0.00 0.00 38 1016.6
20260503001143 74 80 1.0 2.0 0.00 0.00 0.00 37 1016.7
20260503000641 75 131 1.0 3.0 0.00 0.00 0.00 37 1016.7
20260503000138 75 94 1.0 3.0 0.00 0.00 0.00 38 1016.6
20260502235634 75 347 0.0 1.0 0.00 0.00 0.00 38 1016.8
20260502235133 75 209 1.0 1.0 0.00 0.00 0.00 36 1016.5
20260502234628 76 71 0.0 3.0 0.00 0.00 0.00 37 1016.7
20260502234126 76 120 1.0 2.0 0.00 0.00 0.00 36 1016.8
20260502233622 77 103 0.0 2.0 0.00 0.00 0.00 37 1016.7
20260502233119 77 52 0.0 1.0 0.00 0.00 0.00 37 1016.5
20260502232614 78 69 0.0 0.0 0.00 0.00 0.00 37 1016.7
20260502232112 79 83 1.0 1.0 0.00 0.00 0.00 34 1016.9
20260502231608 81 78 0.0 0.0 0.00 0.00 0.00 32 1016.6
20260502231107 80 73 1.0 1.0 0.00 0.00 0.00 32 1016.5